Location: Eastchurch
(51.4000°N, 0.8667°E)
Time: 10:19:11
(UTC+00:00)

NOAA 6 - Pass Details

Date: 19 January 2026
Orbit: 767 x 780 km, 98.6° (Epoch: 19 February)

Event Time Altitude Azimuth Distance (km) Brightness Sun altitude
Rises 18:17:38 0° 156° (SSE) 3,231 7.1 -17.2°
Reaches altitude 10° 18:19:56 10° 155° (SSE) 2,310 6.3 -17.6°
Maximum altitude 18:25:00 73° 72° (ENE) 811 3.9 -18.4°
Drops below altitude 10° 18:30:08 10° 348° (NNW) 2,335 6.5 -19.2°
Sets 18:32:28 0° 347° (NNW) 3,269 7.3 -19.5°
